Regional Weather Roundup
Issued by NWS Cleveland, OH

Home | Current Version | Previous Version | Graphics & Text | Print | Product List | Glossary On
Versions: 1 2 3 4 5 6 7 8 9 10 11 12 13 14 15 16 17 18 19 20 21 22 23 24 25 26 27 28 29 30 31 32 33 34 35 36 37 38 39 40 41 42 43 44 45 46 47 48 49 50
000
ASUS41 KCLE 280510
RWRCLE
OHIO REGIONAL WEATHER ROUNDUP
NATIONAL WEATHER SERVICE WILMINGTON, OH
100 AM EDT THU JUL 28 2016

NOTE: "FAIR" INDICATES FEW OR NO CLOUDS BELOW 12,000 FEET WITH NO
SIGNIFICANT WEATHER AND/OR OBSTRUCTIONS TO VISIBILITY.

OHZ001>008-015>018-024>027-034-035-043-044-280600-
   NORTHWEST OHIO

CITY           SKY/WX    TMP DP  RH WIND       PRES   REMARKS
DEFIANCE       FAIR      75  65  70 NE3       29.95R
FINDLAY        FAIR      71  62  73 S5        29.94S
TOLEDO EXPRESS CLEAR     73  66  78 NW5       29.95S
TOLEDO EXEC    FAIR      75  65  70 CALM      29.95S
LIMA           FAIR      70  66  87 CALM      29.95F
$$

OHZ009>014-019>023-028>033-038-089-280600-
   NORTHEAST OHIO

CITY           SKY/WX    TMP DP  RH WIND       PRES   REMARKS
CLE-HOPKINS    FAIR      73  59  61 W3        29.97F
CLE-LAKEFRONT  FAIR      77  58  51 W5        29.94S
CUY CO. ARPT   NOT AVBL
LORAIN-ELYRIA  FAIR      67  60  78 SW3       29.96F
ASHTABULA      FAIR      64  62  93 CALM      29.97F
AKRON-CANTON   FAIR      70  60  70 NE6       29.97F
WOOSTER        FAIR      67  61  81 NW3       29.98S
MANSFIELD      FAIR      74  61  63 CALM      29.99S
YOUNGSTOWN     FAIR      65  62  90 E5        29.97F
$$

OHZ042-051>053-060>062-070>072-077>081-280600-
  SOUTHWEST OHIO

CITY           SKY/WX    TMP DP  RH WIND       PRES   REMARKS
CINC-COVINGTON CLOUDY    77  75  93 W3        29.95F
CINC-LUNKEN    MOCLDY    76  75  97 CALM      29.94F
HAMILTON       MOCLDY    76  71  85 CALM      29.95F
DAYTON         MOCLDY    76  64  66 NW3       29.97F
WRIGHT-PAT AFB MOCLDY    78  66  68 CALM      29.94F
DAYTON GENERAL FAIR      79  66  64 N3        29.95F
WILMINGTON     FAIR      79  68  69 NW3       29.95F
$$

OHZ036-037-039>041-045>050-054>059-063>069-073>076-082>088-280600-
  CENTRAL AND SOUTHEAST OHIO

CITY           SKY/WX    TMP DP  RH WIND       PRES   REMARKS
COLUMBUS       CLOUDY    78  66  66 CALM      29.94S
OSU AIRPORT    FAIR      77  68  73 CALM      29.95S
BOLTON FIELD   FAIR      80  67  63 CALM      29.95F
RICKENBACK AFB LGT RAIN  76  73  87 CALM      29.93F
NEWARK         FAIR      74  70  87 CALM      29.94F
MARION         MOCLDY    74  63  68 CALM      29.97S
LANCASTER      FAIR      75  73  93 CALM      29.95S
ZANESVILLE     FAIR      77  70  79 S3        29.95S
NEW PHILLY     FAIR      74  62  66 CALM      29.95F
$$




USA.gov is the U.S. government's official web portal to all federal, state and local government web resources and services.